Station 46028 (LLNR 275) - CAPE SAN MARTIN - 55NM West NW of Morro Bay, CA Image indicating link to RSS feed of recent meteorological observations for station 46028


Conditions at 46028 as of
(12:10 am PDT)
0710 GMT on 06/21/2024:
     

Click on the graph icon in the table below to see a time series plot of the last five days of that observation.

5-day plot - Wind Direction Wind Direction (WDIR): NW ( 320 deg true )
5-day plot - Wind Speed Wind Speed (WSPD): 27.2 kts
5-day plot - Wind Gust Wind Gust (GST): 35.0 kts
5-day plot - Atmospheric Pressure Atmospheric Pressure (PRES):29.81 in
5-day plot - Air Temperature Air Temperature (ATMP): 53.6 °F
5-day plot - Dew Point Dew Point (DEWP): 52.9 °F
5-day plot - Wind Chill Wind Chill (CHILL): 46.8 °F
5-day plot - Wind Speed at 10 Meters Wind Speed at 10 meters (WSPD10M): 31.1 kts
5-day plot - Wind Speed at 20 Meters Wind Speed at 20 meters (WSPD20M): 31.1 kts
5-day plot -  Wind Speed, Wind Gust and Atmospheric Pressure Combined plot of Wind Speed, Gust, and Air Pressure
Supplemental Measurements
Highest 1-minute Wind Speed
Time (PDT)5-day plot - 1-Minute Wind Speed WSPD 5-day plot - 1-Minute Wind Direction WDIR
12:04 am 31.1 kts-
Previous observations
TIME
(PDT)
5-day plot - Wind Direction
WDIR
 
5-day plot - Wind Speed
WSPD
kts
5-day plot - Wind Gust
GST
kts
5-day plot - Wave Height
WVHT
ft
5-day plot - Dominant Wave Period
DPD
sec
5-day plot - Average Wave Period
APD
sec
5-day plot - Mean Wave Direction
MWD
 
5-day plot - Atmospheric Pressure
PRES
in
5-day plot - Pressure Tendency
PTDY
in
5-day plot - Air Temperature
ATMP
°F
5-day plot - Water Temperature
WTMP
°F
5-day plot - Dew Point
DEWP
°F
5-day plot - Salinity
SAL
psu
5-day plot - Visibility
VIS
nmi
5-day plot - Tide (above MLLW)
TIDE
ft
2024-06-21 12:00 am NW 27.2 33.0----29.82+0.00 53.6- 52.9---
2024-06-20 11:50 pm NW 25.3 33.0 7.9 75.2 NW29.81- 53.6- 52.9---
2024-06-20 11:40 pm NW 27.2 33.0 7.9-5.2 NW29.82- 53.6- 52.9---
2024-06-20 11:30 pmNNW 29.1 33.0----29.81- 53.4- 52.5---
2024-06-20 11:20 pm NW 27.2 33.0 7.9 65.3NNW29.81- 53.6- 52.9---
2024-06-20 11:10 pm NW 27.2 33.0 7.9-5.3NNW29.81- 53.6- 52.9---
2024-06-20 11:00 pmNNW 25.3 33.0----29.81-0.01 53.6- 52.9---
2024-06-20 10:50 pm NW 27.2 35.0 7.5 65.2NNW29.81- 53.6- 52.7---
2024-06-20 10:40 pmNNW 25.3 31.1----29.82- 53.6- 52.7---
2024-06-20 10:30 pmNNW 25.3 31.1----29.82- 54.0- 53.1---
2024-06-20 10:20 pmNNW 25.3 33.0 7.9 65.4NNW29.82- 54.0- 53.1---
2024-06-20 10:10 pm NW 25.3 31.1 7.9-5.4NNW29.82- 54.0- 52.9---
2024-06-20 10:00 pm NW 25.3 33.0----29.82-0.01 54.0- 52.9---
2024-06-20 09:50 pm NW 25.3 33.0 7.5 75.4 NW29.82- 54.1- 53.1---
2024-06-20 09:40 pm NW 27.2 33.0----29.82- 54.1- 52.9---
2024-06-20 09:30 pm NW 25.3 33.0----29.82- 54.1- 52.9---
2024-06-20 09:20 pmNNW 25.3 31.1 6.6 65.0NNW29.82- 54.1- 52.9---
2024-06-20 09:10 pmNNW 25.3 33.0 6.6-5.0NNW29.82- 54.1- 52.9---
2024-06-20 09:00 pm NW 25.3 31.1----29.82-0.02 54.1- 52.9---
2024-06-20 08:50 pm NW 25.3 33.0 6.9 55.2NNW29.82- 54.1- 52.9---
2024-06-20 08:40 pm NW 25.3 31.1 6.9-5.2NNW29.82- 54.0- 52.9---
2024-06-20 08:30 pmNNW 25.3 29.1----29.82- 54.1- 53.1---
2024-06-20 08:20 pm NW 23.3 29.1 6.6 65.1 NW29.83- 54.3- 53.2---
2024-06-20 08:10 pm NW 21.4 29.1 6.6-5.1 NW29.83- 54.5- 53.1---
2024-06-20 08:00 pmNNW 23.3 29.1----29.83-0.02 54.5- 52.9---
2024-06-20 07:50 pmNNW 23.3 31.1 6.2 85.2 NW29.83- 54.5- 52.9---
2024-06-20 07:40 pm NW 23.3 29.1 6.2-5.2 NW29.83- 54.7- 52.9---
2024-06-20 07:30 pmNNW 23.3 29.1----29.83- 54.7- 52.9---
2024-06-20 07:20 pmNNW 23.3 29.1 5.9 75.0NNW29.83- 54.9- 52.9---
2024-06-20 07:10 pm NW 23.3 29.1 5.9-5.0NNW29.83- 54.9- 52.7---
2024-06-20 07:00 pm NW 21.4 27.2----29.83-0.03 55.0- 53.1---
2024-06-20 06:50 pmNNW 21.4 27.2 5.9 85.0 NW29.83- 55.0- 52.9---
2024-06-20 06:40 pm NW 21.4 27.2 5.9-5.0 NW29.83- 55.0- 52.9---
2024-06-20 06:30 pmNNW 23.3 29.1----29.83- 54.9- 52.3---
2024-06-20 06:20 pmNNW 23.3 27.2 5.9 75.1 NW29.83- 55.0- 52.5---
2024-06-20 06:10 pmNNW 21.4 27.2 5.9-5.1 NW29.84- 55.0- 52.5---
2024-06-20 06:00 pm NW 21.4 25.3----29.84-0.03 55.0- 52.7---
2024-06-20 05:50 pmNNW 21.4 25.3 5.2 64.8 NW29.84- 55.0- 52.7---
2024-06-20 05:40 pm NW 19.4 23.3----29.84- 55.0- 52.9---
2024-06-20 05:30 pmNNW 19.4 23.3----29.84- 54.9- 52.7---
2024-06-20 05:20 pmNNW 19.4 23.3 5.6 64.9 NW29.85- 54.9- 52.7---
2024-06-20 05:10 pmNNW 19.4 25.3 5.6-4.9 NW29.85- 54.9- 52.7---
2024-06-20 05:00 pmNNW 19.4 25.3----29.85-0.04 54.9- 52.7---
2024-06-20 04:50 pmNNW 19.4 23.3 5.2 64.9 NW29.85- 54.7- 52.3---
2024-06-20 04:40 pmNNW 19.4 25.3----29.85- 54.9- 52.5---
2024-06-20 04:20 pmNNW 19.4 25.3 5.2 65.0 NW29.86-------
2024-06-20 04:10 pmNNW 19.4 25.3----29.86- 54.7- 52.2---
2024-06-20 04:00 pm NW 19.4 25.3----29.86-0.03 54.7- 52.3---
2024-06-20 03:50 pmNNW 19.4 25.3 4.9 64.9 NW29.87- 54.7- 52.5---
2024-06-20 03:40 pmNNW 17.5 23.3 4.9-4.9 NW29.87- 54.7- 52.7---
2024-06-20 03:30 pm NW 17.5 23.3----29.87- 54.5- 52.3---
2024-06-20 03:20 pm NW 17.5 23.3 4.6 55.1NNW29.87- 54.5- 52.3---
2024-06-20 03:10 pm NW 17.5 21.4 4.6-5.1NNW29.87- 54.5- 52.5---
2024-06-20 03:00 pm NW 17.5 21.4----29.87-0.02 54.3- 52.2---
2024-06-20 02:50 pm NW 17.5 21.4 4.9 55.0NNW29.87- 54.3- 52.3---
2024-06-20 02:40 pm NW 17.5 21.4----29.88- 54.1- 52.2---
2024-06-20 02:30 pm NW 17.5 21.4----29.88- 54.0- 52.0---
2024-06-20 02:20 pm NW 17.5 23.3 4.9 64.9NNW29.88- 54.0- 52.0---
2024-06-20 02:10 pm NW 17.5 21.4 4.9-4.9NNW29.88- 53.8- 51.8---
2024-06-20 02:00 pmNNW 17.5 21.4----29.88+0.00 53.8- 51.8---
2024-06-20 01:50 pmNNW 17.5 21.4 5.2 165.1 SW29.89- 53.8- 51.6---
2024-06-20 01:40 pmNNW 17.5 21.4 5.2-5.1 SW29.89- 53.6- 51.6---
2024-06-20 01:30 pmNNW 17.5 23.3----29.89- 53.4- 51.4---
2024-06-20 01:20 pmNNW 19.4 23.3 4.9 125.1 W29.89- 53.4- 51.3---
2024-06-20 01:10 pmNNW 19.4 25.3 4.9-5.1 W29.89- 53.4- 51.3---
2024-06-20 01:00 pmNNW 19.4 23.3----29.89+0.01 53.4- 51.4---
2024-06-20 12:50 pmNNW 17.5 23.3 4.9 54.9NNW29.90- 53.4- 51.3---
2024-06-20 12:40 pmNNW 17.5 21.4 4.9-4.9NNW29.90- 53.4- 51.3---
2024-06-20 12:30 pmNNW 17.5 21.4----29.89- 53.4- 51.1---
2024-06-20 12:20 pmNNW 19.4 23.3 4.9 164.9SSE29.90- 53.4- 51.1---
2024-06-20 12:10 pmNNW 19.4 23.3 4.9-4.9SSE29.90- 53.2- 51.1---
2024-06-20 12:00 pmNNW 17.5 21.4----29.90+0.01 53.4- 51.4---
2024-06-20 11:50 amNNW 17.5 21.4 4.6 54.8 NW29.89- 53.4- 51.4---
2024-06-20 11:40 amNNW 17.5 21.4 4.6-4.8 NW29.89- 53.4- 51.4---
2024-06-20 11:30 amNNW 17.5 21.4----29.89- 53.6- 51.6---
2024-06-20 11:20 amNNW 17.5 21.4 4.6 54.8NNW29.89- 53.6- 51.6---
2024-06-20 11:10 amNNW 17.5 21.4 4.6-4.8NNW29.89- 53.6- 51.6---
2024-06-20 11:00 amNNW 17.5 21.4----29.89+0.01 53.6- 51.8---
2024-06-20 10:50 amNNW 17.5 21.4 4.6 54.7 NW29.89- 53.8- 52.0---
2024-06-20 10:40 amNNW 17.5 19.4----29.89- 53.8- 52.0---
2024-06-20 10:30 am NW 17.5 21.4----29.88- 53.8- 51.8---
2024-06-20 10:20 amNNW 17.5 21.4 4.9 54.8 NW29.88- 53.8- 51.8---
2024-06-20 10:10 am NW 17.5 23.3 4.9-4.8 NW29.88- 53.8- 51.8---
2024-06-20 10:00 am NW 17.5 21.4----29.88+0.01 53.8- 51.8---
2024-06-20 09:50 am NW 17.5 23.3 4.9 144.8WSW29.88- 53.8- 51.6---
2024-06-20 09:40 am NW 17.5 23.3----29.88- 53.8- 51.4---
2024-06-20 09:30 am NW 17.5 21.4----29.88- 53.8- 51.4---
2024-06-20 09:20 am NW 17.5 23.3 4.9 144.9SSW29.89- 53.8- 51.4---
2024-06-20 09:10 am NW 19.4 23.3 4.9-4.9SSW29.88- 53.8- 51.4---
2024-06-20 09:00 am NW 19.4 23.3----29.89+0.02 53.6- 51.1---
2024-06-20 08:50 am NW 19.4 23.3 4.6 64.8NNW29.88- 53.4- 50.9---
2024-06-20 08:40 amNNW 19.4 23.3 4.6-4.8NNW29.88- 53.6- 51.3---
2024-06-20 08:30 amNNW 19.4 25.3----29.88- 53.4- 50.9---
2024-06-20 08:20 amNNW 17.5 23.3 4.9 54.6 NW29.88- 53.4- 51.1---
2024-06-20 08:10 am NW 19.4 23.3 4.9-4.6 NW29.88- 53.4- 51.1---
2024-06-20 08:00 amNNW 19.4 25.3----29.88+0.02 53.2- 51.1---
2024-06-20 07:50 amNNW 19.4 25.3 4.9 54.6NNW29.87- 53.1- 51.1---
2024-06-20 07:40 amNNW 19.4 23.3 4.9-4.6NNW29.87- 53.1- 51.4---
2024-06-20 07:30 amNNW 19.4 23.3----29.87- 53.1- 51.6---
2024-06-20 07:20 am NW 19.4 23.3 5.2 54.7 NW29.87- 52.9- 51.4---
2024-06-20 07:10 amNNW 19.4 23.3 5.2-4.7 NW29.87- 53.1- 51.8---
2024-06-20 07:00 amNNW 19.4 23.3----29.87+0.02 53.1- 51.6---
2024-06-20 06:50 amNNW 19.4 25.3 4.6 64.6 NW29.87- 53.1- 51.6---
2024-06-20 06:40 amNNW 19.4 23.3----29.88- 52.9- 51.4---
2024-06-20 06:30 amNNW 19.4 23.3----29.87- 53.1- 51.6---
2024-06-20 06:20 am NW 19.4 25.3 4.9 54.7NNW29.87- 53.1- 51.6---
2024-06-20 06:10 am NW 17.5 21.4 4.9-4.7NNW29.87- 53.2- 51.8---
2024-06-20 06:00 am NW 19.4 23.3----29.86+0.00 53.2- 51.6---
2024-06-20 05:50 amNNW 17.5 23.3 4.9 154.6SSW29.86- 53.2- 51.4---
2024-06-20 05:40 amNNW 19.4 25.3----29.86- 53.2- 51.4---
2024-06-20 05:30 amNNW 19.4 23.3----29.85- 53.2- 51.4---
2024-06-20 05:20 amNNW 19.4 23.3 4.9 54.6NNW29.85- 53.1- 51.3---
2024-06-20 05:10 am NW 19.4 23.3 4.9-4.6NNW29.85- 53.1- 51.3---
2024-06-20 05:00 am NW 19.4 23.3----29.85-0.01 53.1- 51.3---
2024-06-20 04:50 am NW 19.4 25.3 5.2 54.6NNW29.85- 53.1- 51.3---
2024-06-20 04:40 am NW 19.4 25.3----29.85- 52.9- 51.1---
2024-06-20 04:30 amNNW 19.4 23.3----29.85- 52.9- 51.3---
2024-06-20 04:20 am NW 19.4 23.3 5.2 64.7NNW29.85- 53.1- 51.6---
2024-06-20 04:10 am NW 19.4 23.3 5.2-4.7NNW29.85- 52.9- 51.4---
2024-06-20 04:00 am NW 19.4 23.3----29.85-0.02 52.9- 51.4---
2024-06-20 03:50 am NW 17.5 23.3 5.2 54.7NNW29.85- 52.9- 51.4---
2024-06-20 03:40 am NW 17.5 21.4----29.85- 52.9- 51.3---
2024-06-20 03:30 am NW 17.5 23.3----29.85- 52.9- 51.1---
2024-06-20 03:20 am NW 17.5 21.4 5.2 54.7NNW29.85- 53.1- 51.3---
2024-06-20 03:10 amNNW 19.4 21.4 5.2-4.7NNW29.85- 52.9- 51.1---
2024-06-20 03:00 amNNW 19.4 23.3----29.86-0.02 53.1- 51.1---
2024-06-20 02:50 am NW 19.4 23.3 5.6 54.8NNW29.86- 53.2- 51.3---
2024-06-20 02:40 am NW 21.4 25.3----29.86- 52.9- 50.9---
2024-06-20 02:30 am NW 21.4 25.3----29.86- 53.1- 51.1---
2024-06-20 02:20 am NW 21.4 25.3 5.6 64.7NNW29.86- 53.1- 51.1---
2024-06-20 02:10 am NW 21.4 25.3 5.6-4.7NNW29.87- 53.1- 51.1---
2024-06-20 02:00 am NW 21.4 25.3----29.86-0.02 53.2- 51.1---
2024-06-20 01:50 am NW 23.3 27.2 5.6 54.9 NW29.87- 53.1- 50.9---
2024-06-20 01:40 am NW 21.4 25.3----29.87- 53.2- 51.1---
2024-06-20 01:30 am NW 21.4 25.3----29.87- 53.2- 51.3---
2024-06-20 01:20 am NW 19.4 25.3 5.2 54.8NNW29.87- 53.2- 51.3---
2024-06-20 01:10 am NW 19.4 23.3 5.2-4.8NNW29.88- 53.2- 51.3---
2024-06-20 01:00 am NW 19.4 23.3----29.88-0.01 53.2- 51.3---
2024-06-20 12:50 am NW 19.4 25.3 5.6 64.8NNW29.88- 53.2- 51.1---
2024-06-20 12:40 am NW 19.4 25.3 5.6-4.8NNW29.88- 53.4- 51.4---
2024-06-20 12:30 am NW 21.4 27.2----29.88- 53.2- 51.1---
2024-06-20 12:20 am NW 21.4 25.3 5.6 54.8NNW29.88- 53.2- 51.1---
2024-06-20 12:10 am NW 21.4 25.3 5.6-4.8NNW29.88- 53.2- 51.3---
2024-06-20 12:00 am NW 19.4 23.3----29.88+0.01 53.4- 51.4---
2024-06-19 11:50 pm NW 21.4 27.2 5.6-4.9NNW29.88-------

Detailed Wave Summary
for 46028 as of
(11:40 pm PDT on 06/20/2024)
0640 GMT on 06/21/2024:

These wave data are displayed in rounded times.

     

Click on the graph icon in the table below to see a time series plot of the last five days of that observation.

5-day plot - Significant Wave Height Significant Wave Height (WVHT): 7.9 ft
5-day plot - Swell Height Swell Height (SwH): 2.3 ft
5-day plot - Swell Period Swell Period (SwP): 10.8 sec
5-day plot - Swell Direction Swell Direction (SwD):NNW
5-day plot - Wind Wave Height Wind Wave Height (WWH): 7.5 ft
5-day plot - Wind Wave Period Wind Wave Period (WWP): 6.7 sec
5-day plot - Wind Wave Direction Wind Wave Direction (WWD): NW
5-day plot - Wave Steepness Wave Steepness (STEEPNESS):VERY_STEEP
5-day plot - Average Wave Period Average Wave Period (APD): 5.2 sec
Previous observations
TIME
(PDT)
5-day plot - Wave Height
WVHT
ft
5-day plot - Swell Height
SwH
ft
5-day plot - Swell Period
SwP
sec
5-day plot - Swell Direction
SwD
 
5-day plot - Wind Wave Height
WWH
ft
5-day plot - Wind Wave Period
WWP
sec
5-day plot - Wind Wave Direction
WWD
 
5-day plot - Wave Steepness
STEEPNESS
 
5-day plot - Average Wave Period
APD
sec
2024-06-20 11:10 pm 7.9 2.3 12.9 SW 7.5 6.2 NNWVERY_STEEP 5.3
2024-06-20 10:40 pm 7.5 2.3 9.1WNW 7.2 6.2 NNWVERY_STEEP 5.2
2024-06-20 10:10 pm 7.9 2.6 14.8 W 7.2 5.9 NNWVERY_STEEP 5.4
2024-06-20 09:40 pm 7.5 2.6 14.8SSW 6.9 7.1 NW STEEP 5.4
2024-06-20 09:10 pm 6.6 2.6 8.3 NW 5.9 6.2 NNWVERY_STEEP 5.0
2024-06-20 08:40 pm 6.9 2.6 10.0WNW 6.2 5.3 NNWVERY_STEEP 5.2
2024-06-20 08:10 pm 6.6 2.3 14.8WSW 6.2 5.6 NWVERY_STEEP 5.1
2024-06-20 07:40 pm 6.2 2.6 11.4 W 5.6 7.7 NW STEEP 5.2
2024-06-20 07:10 pm 5.9 2.6 12.9WSW 5.2 7.1 NNW STEEP 5.0
2024-06-20 06:40 pm 5.9 3.3 7.7 NW 4.9 6.2 NW STEEP 5.0
2024-06-20 06:10 pm 5.9 3.3 8.3 NW 4.9 7.1 NW STEEP 5.1
2024-06-20 05:40 pm 5.2 2.6 7.7 NW 4.6 5.9 NWVERY_STEEP 4.8
2024-06-20 05:10 pm 5.6 2.6 10.0 NW 4.9 5.6 NWVERY_STEEP 4.9
2024-06-20 04:40 pm 5.2 3.0 8.3WNW 4.6 5.9 NWVERY_STEEP 4.9
2024-06-20 04:10 pm 5.2 2.6 8.3 NW 4.3 5.6 NWVERY_STEEP 5.0
2024-06-20 03:40 pm 4.9 2.6 10.0WNW 3.9 5.9 NWVERY_STEEP 4.9
2024-06-20 03:10 pm 4.6 2.6 10.8WNW 3.9 4.5 NNWVERY_STEEP 5.1
2024-06-20 02:40 pm 4.9 2.6 10.8WNW 4.3 4.5 NNWVERY_STEEP 5.0
2024-06-20 02:10 pm 4.9 2.6 14.8WSW 3.9 5.6 NNWVERY_STEEP 4.9
2024-06-20 01:40 pm 5.2 3.0 16.0 SW 3.9 5.9 NW AVERAGE 5.1
2024-06-20 01:10 pm 4.9 2.6 12.1 W 4.3 5.6 NW AVERAGE 5.1
2024-06-20 12:40 pm 4.9 2.6 14.8 SW 3.9 5.3 NNWVERY_STEEP 4.9
2024-06-20 12:10 pm 4.9 3.0 16.0SSE 3.9 5.3 NNW AVERAGE 4.9
2024-06-20 11:40 am 4.6 2.6 12.1 SW 3.9 5.3 NWVERY_STEEP 4.8
2024-06-20 11:10 am 4.6 2.3 12.9WSW 3.9 5.0 NNWVERY_STEEP 4.8
2024-06-20 10:40 am 4.6 2.3 16.0 NW 3.9 5.3 NWVERY_STEEP 4.7
2024-06-20 10:10 am 4.9 2.6 14.8SSW 4.3 4.8 NWVERY_STEEP 4.8
2024-06-20 09:40 am 4.9 2.3 13.8WSW 4.3 5.0 NW AVERAGE 4.8
2024-06-20 09:10 am 4.9 2.3 13.8SSW 4.3 4.5 NNW AVERAGE 4.9
2024-06-20 08:40 am 4.6 2.3 13.8WSW 4.3 5.6 NNWVERY_STEEP 4.8
2024-06-20 08:10 am 4.9 2.0 14.8ENE 4.6 5.3 NWVERY_STEEP 4.6
2024-06-20 07:40 am 4.9 2.0 16.0 W 4.6 4.8 NNWVERY_STEEP 4.6
2024-06-20 07:10 am 5.2 2.3 14.8SSW 4.6 5.0 NWVERY_STEEP 4.7
2024-06-20 06:40 am 4.6 2.0 16.0SSE 4.3 5.6 NWVERY_STEEP 4.6
2024-06-20 06:10 am 4.9 2.0 16.0SSE 4.3 5.0 NNWVERY_STEEP 4.7
2024-06-20 05:40 am 4.9 2.6 14.8SSW 4.3 5.0 NW AVERAGE 4.6
2024-06-20 05:10 am 4.9 2.0 13.8 W 4.6 5.3 NNWVERY_STEEP 4.6
2024-06-20 04:40 am 5.2 1.6 13.8 W 4.9 5.3 NNWVERY_STEEP 4.6
2024-06-20 04:10 am 5.2 2.0 12.9WSW 4.9 5.6 NNWVERY_STEEP 4.7
2024-06-20 03:40 am 5.2 2.0 13.8 SW 4.6 5.3 NNWVERY_STEEP 4.7
2024-06-20 03:10 am 5.2 2.0 12.9 W 4.9 5.3 NNWVERY_STEEP 4.7
2024-06-20 02:40 am 5.6 1.6 14.8 W 5.2 5.3 NNWVERY_STEEP 4.8
2024-06-20 02:10 am 5.6 1.6 13.8SSW 5.2 5.6 NNWVERY_STEEP 4.7
2024-06-20 01:40 am 5.6 2.0 16.0SSW 5.2 5.3 NWVERY_STEEP 4.9
2024-06-20 01:10 am 5.2 1.6 16.0SSW 4.9 5.3 NNWVERY_STEEP 4.8
2024-06-20 12:40 am 5.6 1.6 12.9 SW 5.2 5.9 NNWVERY_STEEP 4.8
2024-06-20 12:10 am 5.6 2.0 13.8 SE 5.2 5.3 NNWVERY_STEEP 4.8

Plot of wave energy versus frequency (and period)